Great Bend, KS

2:01 AM CST on February 21, 2017 (GMT -0600)
Great Bend Municipal

Weather History for KGBD - May, 2012

Change the Weather History Date:

Sunday, May 27, 2012

  Actual Average Record
Temperature  
Mean Temperature 80 °F -  
Max Temperature 91 °F 80 °F 96 °F (1991)
Min Temperature 69 °F 57 °F 40 °F (1992)
Cooling Degree Days 15    
Growing Degree Days 30 (Base 50)    
Moisture  
Dew Point 62 °F    
Average Humidity 53    
Maximum Humidity 73    
Minimum Humidity 36    
Precipitation  
Precipitation 0.00 in - - ()
Sea Level Pressure  
Sea Level Pressure 29.73 in    
Wind  
Wind Speed 22 mph (South)    
Max Wind Speed 33 mph    
Max Gust Speed 43 mph    
Visibility 10 miles    
Events      
Averages and records for this station are not official NWS values.
T = Trace of Precipitation, MM = Missing Value Source: NWS Daily Summary

Daily Weather History Graph

Daily Weather History Graph

Search for Another Location

Airport or City:

Trip Planner

Search our weather history database for the weather conditions in past years. The results will help you decide how hot, cold, wet, or windy it might be!

Date:

Astronomy

May. 27, 2012 Rise Set
Actual Time 6:15 AM CDT 8:50 PM CDT
Civil Twilight 5:44 AM CDT 9:20 PM CDT
Nautical Twilight 5:06 AM CDT 9:59 PM CDT
Astronomical Twilight 4:24 AM CDT 10:42 PM CDT
Moon 12:19 PM CDT (5/27) 1:00 AM CDT (5/27)
Length of Visible Light 15h 36m
Length of Day
14h 34m
Waxing Crescent, 38% of the Moon is Illuminated
May 27
Waxing Crescent
May 28
First Quarter
Jun 4
Full
Jun 11
Last Quarter
Jun 19
New

Hourly Weather History & Observations

Time (CDT) Temp. Heat Index Dew Point Humidity Pressure Visibility Wind Dir Wind Speed Gust Speed Precip Events Conditions
12:15 AM 78.8 °F - 62.6 °F 57% 29.80 in 10.0 mi South 27.6 mph 35.7 mph N/A   Clear
12:35 AM 77.0 °F - 62.6 °F 61% 29.81 in 10.0 mi South 25.3 mph 35.7 mph N/A   Clear
12:55 AM 77.0 °F - 62.6 °F 61% 29.82 in 10.0 mi South 26.5 mph 33.4 mph N/A   Clear
1:15 AM 77.0 °F - 62.6 °F 61% 29.85 in 10.0 mi SSW 17.3 mph 29.9 mph N/A   Scattered Clouds
1:35 AM 77.0 °F - 62.6 °F 61% 29.87 in 10.0 mi SW 15.0 mph 20.7 mph N/A   Mostly Cloudy
1:55 AM 75.2 °F - 62.6 °F 65% 29.87 in 10.0 mi SW 13.8 mph 19.6 mph N/A   Clear
2:15 AM 75.2 °F - 62.6 °F 65% 29.86 in 10.0 mi SSW 11.5 mph 18.4 mph N/A   Clear
2:35 AM 75.2 °F - 62.6 °F 65% 29.85 in 10.0 mi South 15.0 mph - N/A   Clear
2:55 AM 73.4 °F - 62.6 °F 69% 29.83 in 10.0 mi South 15.0 mph 21.9 mph N/A   Clear
3:15 AM 73.4 °F - 62.6 °F 69% 29.82 in 10.0 mi South 16.1 mph - N/A   Clear
3:35 AM 71.6 °F - 62.6 °F 73% 29.81 in 10.0 mi SSE 12.7 mph - N/A   Clear
3:55 AM 71.6 °F - 62.6 °F 73% 29.80 in 10.0 mi South 17.3 mph - N/A   Clear
4:15 AM 71.6 °F - 62.6 °F 73% 29.80 in 10.0 mi SSE 17.3 mph - N/A   Clear
4:35 AM 71.6 °F - 62.6 °F 73% 29.80 in 10.0 mi South 13.8 mph - N/A   Clear
4:55 AM 69.8 °F - 60.8 °F 73% 29.79 in 10.0 mi SSE 12.7 mph - N/A   Clear
5:15 AM 69.8 °F - 60.8 °F 73% 29.79 in 10.0 mi South 16.1 mph - N/A   Clear
5:35 AM 69.8 °F - 60.8 °F 73% 29.78 in 10.0 mi South 18.4 mph 23.0 mph N/A   Clear
5:55 AM 69.8 °F - 60.8 °F 73% 29.78 in 10.0 mi South 21.9 mph 26.5 mph N/A   Clear
6:15 AM 71.6 °F - 60.8 °F 69% 29.78 in 10.0 mi South 20.7 mph 28.8 mph N/A   Clear
6:35 AM 71.6 °F - 60.8 °F 69% 29.78 in 10.0 mi South 20.7 mph 29.9 mph N/A   Clear
6:55 AM 71.6 °F - 60.8 °F 69% 29.78 in 10.0 mi South 18.4 mph 27.6 mph N/A   Clear
7:15 AM 71.6 °F - 60.8 °F 69% 29.80 in 10.0 mi South 18.4 mph 24.2 mph N/A   Clear
7:35 AM 73.4 °F - 60.8 °F 65% 29.80 in 10.0 mi South 17.3 mph 26.5 mph N/A   Clear
7:55 AM 73.4 °F - 60.8 °F 65% 29.80 in 10.0 mi South 19.6 mph 27.6 mph N/A   Clear
8:15 AM 73.4 °F - 60.8 °F 65% 29.80 in 10.0 mi South 20.7 mph 31.1 mph N/A   Clear
8:35 AM 75.2 °F - 62.6 °F 65% 29.79 in 10.0 mi South 26.5 mph 34.5 mph N/A   Clear
8:55 AM 77.0 °F - 62.6 °F 61% 29.79 in 10.0 mi South 29.9 mph 38.0 mph N/A   Clear
9:15 AM 78.8 °F - 62.6 °F 57% 29.79 in 10.0 mi South 31.1 mph 40.3 mph N/A   Clear
9:35 AM 78.8 °F - 62.6 °F 57% 29.78 in 10.0 mi SSW 29.9 mph 36.8 mph N/A   Clear
9:55 AM 80.6 °F 81.8 °F 62.6 °F 54% 29.78 in 10.0 mi South 26.5 mph 38.0 mph N/A   Clear
10:15 AM 78.8 °F - 62.6 °F 57% 29.77 in 10.0 mi South 33.4 mph 36.8 mph N/A   Clear
10:35 AM 80.6 °F 81.8 °F 62.6 °F 54% 29.77 in 10.0 mi South 31.1 mph 35.7 mph N/A   Clear
10:55 AM 82.4 °F 83.4 °F 62.6 °F 51% 29.77 in 10.0 mi SSW 21.9 mph 36.8 mph N/A   Clear
11:15 AM 82.4 °F 83.4 °F 62.6 °F 51% 29.76 in 10.0 mi South 24.2 mph 35.7 mph N/A   Clear
11:35 AM 80.6 °F 81.8 °F 62.6 °F 54% 29.75 in 10.0 mi SSW 25.3 mph 32.2 mph N/A   Clear
11:55 AM 84.2 °F 85.0 °F 62.6 °F 48% 29.75 in 10.0 mi South 26.5 mph 38.0 mph N/A   Clear
12:15 PM 87.8 °F 88.5 °F 62.6 °F 43% 29.74 in 10.0 mi South 27.6 mph 38.0 mph N/A   Clear
12:35 PM 87.8 °F 88.5 °F 62.6 °F 43% 29.74 in 10.0 mi SSW 18.4 mph 38.0 mph N/A   Clear
12:55 PM 89.6 °F 89.5 °F 60.8 °F 38% 29.72 in 10.0 mi South 25.3 mph 34.5 mph N/A   Partly Cloudy
1:15 PM 89.6 °F 89.5 °F 60.8 °F 38% 29.72 in 10.0 mi SSW 24.2 mph 35.7 mph N/A   Clear
1:35 PM 91.4 °F 91.4 °F 60.8 °F 36% 29.71 in 10.0 mi South 26.5 mph 36.8 mph N/A   Clear
1:55 PM 91.4 °F 92.1 °F 62.6 °F 38% 29.71 in 10.0 mi South 24.2 mph 34.5 mph N/A   Partly Cloudy
2:15 PM 91.4 °F 91.4 °F 60.8 °F 36% 29.70 in 10.0 mi South 21.9 mph 31.1 mph N/A   Partly Cloudy
2:35 PM 91.4 °F 92.1 °F 62.6 °F 38% 29.69 in 10.0 mi SSW 19.6 mph 33.4 mph N/A   Scattered Clouds
2:55 PM 91.4 °F 92.1 °F 62.6 °F 38% 29.69 in 10.0 mi South 20.7 mph 33.4 mph N/A   Mostly Cloudy
3:15 PM 91.4 °F 92.1 °F 62.6 °F 38% 29.68 in 10.0 mi SSW 23.0 mph 33.4 mph N/A   Mostly Cloudy
3:35 PM 91.4 °F 92.1 °F 62.6 °F 38% 29.68 in 10.0 mi South 26.5 mph 39.1 mph N/A   Scattered Clouds
3:55 PM 91.4 °F 92.1 °F 62.6 °F 38% 29.67 in 10.0 mi South 24.2 mph 38.0 mph N/A   Scattered Clouds
4:15 PM 91.4 °F 92.1 °F 62.6 °F 38% 29.66 in 10.0 mi South 28.8 mph 38.0 mph N/A   Partly Cloudy
4:35 PM 91.4 °F 92.1 °F 62.6 °F 38% 29.65 in 10.0 mi South 28.8 mph 35.7 mph N/A   Clear
4:55 PM 91.4 °F 91.4 °F 60.8 °F 36% 29.65 in 10.0 mi South 24.2 mph 42.6 mph N/A   Partly Cloudy
5:15 PM 91.4 °F 92.1 °F 62.6 °F 38% 29.64 in 10.0 mi South 28.8 mph 40.3 mph N/A   Clear
5:35 PM 91.4 °F 91.4 °F 60.8 °F 36% 29.64 in 10.0 mi South 29.9 mph 40.3 mph N/A   Clear
5:55 PM 89.6 °F 89.5 °F 60.8 °F 38% 29.63 in 10.0 mi South 29.9 mph 36.8 mph N/A   Clear
6:15 PM 87.8 °F 87.6 °F 60.8 °F 40% 29.62 in 10.0 mi South 32.2 mph 38.0 mph N/A   Clear
6:35 PM 89.6 °F 89.5 °F 60.8 °F 38% 29.61 in 10.0 mi South 31.1 mph 41.4 mph N/A   Clear
6:55 PM 89.6 °F 89.5 °F 60.8 °F 38% 29.61 in 10.0 mi South 31.1 mph 42.6 mph N/A   Clear
7:15 PM 87.8 °F 87.6 °F 60.8 °F 40% 29.60 in 10.0 mi South 28.8 mph 39.1 mph N/A   Clear
7:35 PM 87.8 °F 87.1 °F 59.0 °F 38% 29.61 in 10.0 mi South 31.1 mph 40.3 mph N/A   Clear
7:55 PM 86.0 °F 86.1 °F 60.8 °F 43% 29.60 in 10.0 mi South 28.8 mph 40.3 mph N/A   Clear
8:15 PM 84.2 °F 84.4 °F 60.8 °F 45% 29.60 in 10.0 mi South 24.2 mph 38.0 mph N/A   Clear
8:35 PM 84.2 °F 84.4 °F 60.8 °F 45% 29.61 in 10.0 mi South 23.0 mph 31.1 mph N/A   Clear
8:55 PM 84.2 °F 84.4 °F 60.8 °F 45% 29.62 in 10.0 mi South 24.2 mph 32.2 mph N/A   Clear
9:15 PM 82.4 °F 82.9 °F 60.8 °F 48% 29.62 in 10.0 mi South 23.0 mph 36.8 mph N/A   Clear
9:35 PM 82.4 °F 82.9 °F 60.8 °F 48% 29.63 in 10.0 mi South 23.0 mph 31.1 mph N/A   Clear
9:55 PM 82.4 °F 83.4 °F 62.6 °F 51% 29.65 in 10.0 mi South 20.7 mph 29.9 mph N/A   Clear
10:15 PM 80.6 °F 81.8 °F 62.6 °F 54% 29.66 in 10.0 mi South 19.6 mph 32.2 mph N/A   Clear
10:35 PM 80.6 °F 81.5 °F 60.8 °F 51% 29.67 in 10.0 mi South 19.6 mph 25.3 mph N/A   Clear
10:55 PM 80.6 °F 81.5 °F 60.8 °F 51% 29.67 in 10.0 mi South 23.0 mph 29.9 mph N/A   Clear
11:15 PM 80.6 °F 81.5 °F 60.8 °F 51% 29.67 in 10.0 mi South 20.7 mph 29.9 mph N/A   Clear
11:35 PM 78.8 °F - 60.8 °F 54% 29.67 in 10.0 mi South 19.6 mph 29.9 mph N/A   Clear
11:55 PM 78.8 °F - 60.8 °F 54% 29.66 in 10.0 mi South 23.0 mph 32.2 mph N/A   Clear